Lid_Strength_Index
3 4 4 4 3 3 3 3 3 3 3 3 3 3 3 2 1 3 6 3 1 -1 -1 0 1 2 2 5 5 6 12 14 12 10 9 6 6 4 4 5 4 4 5 3 2
3 4 4 3 3 3 3 3 3 3 3 2 2 2 2 1 2 5 -1 -1 -1 -2 1 3 4 3 6 6 6 9 12 12 8 7 8 6 6 5 6 6 6 5 4 3 3
3 3 3 3 3 3 3 3 2 2 2 1 0 -1 -1 -1 3 3 -3 -3 -2 -2 0 1 2 4 7 6 7 8 12 9 8 7 7 6 6 5 7 7 6 6 5 4 4
3 3 3 3 3 3 2 2 2 1 0 -1 -2 -2 -2 0 10 1 -2 -1 -2 -1 1 2 4 7 9 10 7 11 8 8 8 7 7 7 5 7 7 6 5 4 4 4 4
3 2 2 2 2 2 2 2 1 -1 -2 -2 -2 -2 -0 4 5 -1 -2 -2 -1 1 3 4 6 7 10 8 8 10 9 7 7 7 7 6 7 7 7 6 5 3 4 4 4
3 2 2 2 2 1 1 0 -1 -2 -2 -2 -2 -2 2 8 -0 -1 -1 -0 1 2 3 3 5 4 7 8 9 7 8 8 7 8 7 8 7 8 7 6 5 4 5 4 4
2 2 2 2 1 1 0 -1 -2 -2 -2 -2 -2 -0 4 5 -1 -1 -0 1 0 2 4 3 3 5 5 8 6 7 10 9 8 8 9 7 9 9 7 7 5 5 5 4 4
2 2 2 2 1 0 -1 -2 -2 -2 -2 -2 -2 0 6 -0 -2 0 -0 1 0 1 2 2 2 4 6 6 8 11 10 14 10 9 8 9 13 8 7 7 6 5 5 5 4
2 1 1 1 1 -1 -2 -2 -2 -2 -2 -2 1 2 6 -1 2 1 0 3 2 2 1 1 3 6 7 11 13 12 16 15 13 8 9 10 12 8 7 8 6 6 6 5 5
1 1 1 1 -0 -2 -2 -2 -2 -1 -1 -0 1 5 3 5 3 3 2 2 4 4 5 6 7 10 10 12 17 16 15 14 14 11 10 11 12 9 7 8 8 6 6 6 6
1 1 1 1 -1 -2 -1 0 3 4 3 7 6 6 6 3 3 4 2 3 4 7 11 8 12 14 12 10 9 10 13 14 12 10 11 12 11 10 8 8 9 8 7 7 7
0 1 1 0 -1 -1 0 3 3 2 8 4 5 6 5 5 8 4 2 7 10 11 9 11 14 10 8 10 11 11 14 14 12 10 11 13 12 9 9 9 11 10 8 7 8
0 1 1 0 -1 1 2 2 -0 1 8 7 6 7 6 6 8 6 4 6 10 11 11 12 10 8 10 12 13 12 13 13 13 12 11 12 13 11 10 10 10 10 9 8 8
1 1 0 0 2 1 3 0 0 1 11 10 9 6 6 7 8 3 3 6 10 12 11 11 8 9 11 12 12 15 10 11 12 13 17 12 18 12 11 12 12 11 10 11 11
1 1 0 -0 1 3 2 0 1 3 18 10 9 4 5 8 7 6 3 5 10 12 12 13 10 11 12 11 10 12 9 10 11 12 13 14 15 13 11 13 12 12 12 12 13
1 1 0 1 0 1 1 1 3 12 17 13 9 10 9 8 8 6 6 4 6 10 11 11 8 8 9 9 8 8 10 10 11 13 17 14 15 16 13 12 11 12 13 13 13
1 1 1 1 3 1 1 4 12 15 10 13 13 10 10 11 10 9 9 10 12 15 15 12 12 9 7 10 8 9 11 17 19 19 19 13 15 16 13 13 12 12 14 13 13
3 2 2 2 2 2 3 8 15 15 13 10 11 11 12 10 11 11 11 12 10 10 14 16 17 12 9 10 12 10 11 16 21 20 17 15 17 15 13 12 12 12 14 14 14
2 2 2 2 2 2 6 12 13 13 10 12 11 12 12 10 11 12 12 12 10 10 15 16 16 10 9 8 8 12 14 12 15 16 16 15 15 12 12 13 13 14 14 15 15
4 3 2 1 2 3 9 12 12 10 10 10 14 12 14 12 12 13 12 10 11 9 8 12 16 11 10 8 8 10 9 14 13 19 20 17 16 15 13 13 13 14 14 15 16
4 7 2 1 2 6 11 12 12 9 9 11 12 14 13 13 12 13 12 10 9 9 8 9 12 14 11 13 13 13 13 13 13 15 18 19 17 12 12 12 13 13 13 14 15
5 10 1 1 8 9 11 12 9 9 8 9 9 11 12 12 12 13 13 11 9 8 11 9 12 15 14 10 10 10 11 12 15 17 15 16 16 11 11 11 11 12 12 13 14
10 7 2 3 10 11 12 11 10 10 9 9 10 9 10 12 13 11 11 9 9 8 10 9 13 16 16 12 10 12 10 10 11 12 16 16 16 10 11 11 11 12 12 13 14
7 10 7 6 7 10 11 12 12 8 9 8 9 8 10 12 11 12 11 9 8 8 7 8 11 14 15 14 12 14 12 11 13 15 15 15 14 12 12 12 11 11 11 12 13
8 12 8 10 9 9 8 10 12 12 8 8 9 9 11 13 12 12 11 10 8 8 9 9 14 13 13 12 12 13 13 12 13 13 15 13 13 11 11 11 11 10 10 12 13
10 10 6 8 8 8 9 10 11 10 10 10 11 10 9 12 13 13 12 10 11 9 10 10 14 13 15 11 12 14 12 12 12 12 12 12 12 8 9 9 9 10 10 11 11
7 6 5 8 8 8 10 10 10 10 9 8 9 9 11 12 10 10 9 9 10 10 12 12 13 13 16 15 13 16 13 12 11 10 11 14 10 10 10 10 10 10 9 9 10